Location: Huntsville
(41.2590°N, 111.7678°W)
Time: 10:34:29
(UTC+00:00)

deb Explorer IX - Visible Passes

Search period start: 15 June 2021 00:00
Search period end: 25 June 2021 00:00
Orbit: 542 x 1097 km, 38.8° (Epoch: 14 June)

Date Brightness Start Highest point End Pass type
(mag) Time Alt. Az. Time Alt. Az. Time Alt. Az.
22 Jun ? 11:15:40 10° S 11:18:06 14° SSE 11:20:25 10° ESE visible
23 Jun ? 10:51:39 10° S 10:54:16 15° SSE 10:56:45 10° ESE visible
24 Jun ? 10:28:13 12° S 10:30:26 16° SSE 10:33:05 10° ESE visible
